STARLINK-32473, 62049

Orbit data source: Space-Track

STARLINK-32473, 62049 is a payload satellite owned by SpaceX/Seattle (US) in LEO that was launched on Thu, 21 Nov 2024 UTC via an FALCON 9 launch vehicle from the Air Force Eastern Test Range (AFETR). Payload-class satellites include a variety of spacecraft equipped with specific instruments for various scientific and technological missions. These include communications satellites like Starlink; space stations such as the ISS; scientific satellites like the Hubble; Earth observation satellites from companies like Planet Labs, Umbra, and HawkEye 360; GPS; miniature CubeSats for education and research; and military/defense satellites.

Loading next visibility...
Identifier
62049, 2024-216T
Orbit
LEO
Country
Flag of USUS
Related business
Manufacturer
SpaceX/Seattle
Mission
Operational Commercial Communications
Bus & Motor
STARLINK V2M, Unknown motor
Mass
730 kg wet, ~700 kg dry
Launch date (UTC)
2024-11-21 (1 year ago)
Launch vehicle
FALCON 9
Launch site
Air Force Eastern Test Range (AFETR)
Object type
Payload
Rocket body
Debris
Shape & HBR
Box + 2 Pan, 17.7 m
Radar Cross Section
33.884 m², Large (>1 m²)

Expand to show TLE details & history
Last TLE update: 18 hours ago

TLE from 18 hours ago
0 STARLINK-32473
1 62049U 24216T   25310.10116819  .00053543  00000-0  19382-2 0  9999
2 62049  43.0016 234.3482 0001265 257.3745 102.6965 15.27629346 53811
Epoch: 2025-11-06T02:25Z
TLE epoch observation values (Epoch: 2025-11-06T02:25:40.931Z)
Latitude
-0.00004°
Longitude
152.36329°
Altitude
482.868 km
Speed
7.626 km/s
True Right ascension
15h 37m 23s
True Declination
0° 00' 00"
Sunlit
Object was in daylight at epoch
Visualization orbit readout
Latitude
Unknown
Longitude
Unknown
Altitude
Unknown
Speed
Unknown
Apparent Right ascension
Unknown
Apparent Declination
Unknown
Sunlit
N/A
Visualization observer readout
Local Sidereal Time
16:30:09
Azimuth
Unknown
Elevation
Unknown
Doppler factor
Unknown
Orbital elements
Apogee altitude
485.714 km
Perigee altitude
483.978 km
Semi-major axis
6,862.983 km
Eccentricity
0.00013
Inclination
43.0016°
RAAN
234.3482°
Arg. of periapsis
257.3745°
True anomaly
102.71064°
Mean anomaly
102.6965°
Eccentric anomaly
102.70357°
Mean motion
3.81745 °/min
Orbital period
94.3 mins
BSTAR
0.0019382
Loading maneuver chart data...
Computing Atmospheric mass density...
Loading historical data...
Loading historical data...
Loading historical data...
Loading historical data...
Loading historical data...
Loading historical data...
Loading historical data...

Documentation

Showing up to 5 results
|